GFSSW_250_rhum_057.txt.gz
RH
15 13 10 10 12 12 11 10 12 11 16 25 29 29 24 15 19 12 9 10 14 19 22 18 15 16 17 17 18 18 19 24 52 58 80 99 100 52 67 68 72 98 100 100 83
16 14 12 9 9 9 9 10 10 12 12 17 23 27 29 23 16 20 14 10 10 13 19 22 18 17 17 20 25 19 17 20 37 46 62 100 100 100 40 24 45 60 68 71 63
16 15 14 12 11 10 7 8 9 13 11 11 15 24 27 28 24 18 21 18 11 10 14 22 23 20 16 15 19 21 24 23 26 32 36 99 100 70 34 28 81 98 99 91 100
15 14 13 12 13 12 10 8 8 9 14 12 11 13 24 29 24 35 19 19 17 12 11 17 25 23 20 18 16 16 17 23 31 20 22 88 100 100 76 88 100 84 100 100 74
20 18 16 14 12 11 11 11 9 7 9 13 12 11 14 25 25 26 31 23 20 19 13 12 20 24 22 20 18 16 16 16 26 28 22 53 72 93 76 99 98 100 96 93 100
17 19 19 19 16 13 12 10 11 10 8 8 10 11 11 16 20 26 24 31 22 21 18 13 13 20 22 21 17 17 19 20 18 26 25 44 41 17 64 97 100 100 92 93 90
12 12 13 15 17 18 14 12 11 10 10 9 8 8 10 12 12 20 23 26 27 24 22 20 13 13 16 20 19 18 19 21 21 20 19 40 26 25 81 100 100 100 78 60 19
12 12 11 10 12 14 16 16 13 11 10 11 10 10 9 10 11 12 15 18 21 24 23 20 19 13 12 14 19 18 18 20 19 21 18 23 28 34 41 80 95 92 100 94 60
16 14 11 10 10 10 11 13 16 14 12 10 11 11 13 12 11 11 11 13 14 16 20 21 20 17 17 13 13 16 18 18 18 18 19 18 20 22 23 36 58 93 100 100 94
16 14 12 11 10 9 9 9 10 13 15 14 12 11 11 12 14 14 13 12 11 12 15 17 18 23 19 26 21 12 13 14 17 18 18 17 20 20 19 16 31 96 99 100 89
12 12 11 11 11 10 9 9 9 8 10 13 16 14 14 12 11 12 14 15 13 12 13 14 16 22 22 21 18 19 11 11 11 13 16 16 19 26 17 20 96 100 92 94 80
13 12 10 11 10 10 11 10 9 9 9 10 11 14 17 17 14 12 11 14 14 16 15 14 19 19 22 22 20 19 20 14 11 10 10 12 13 15 17 14 39 100 89 100 66
17 19 17 16 14 11 11 12 12 11 9 9 10 10 12 17 18 16 15 13 15 15 16 17 21 18 17 20 20 22 22 17 12 10 9 9 10 11 12 13 14 78 99 94 88
23 23 22 20 19 16 15 14 14 13 12 9 9 10 10 11 13 16 19 18 17 15 16 18 19 18 20 20 22 22 21 20 15 10 10 10 10 8 8 9 13 22 68 100 92
25 23 21 19 20 20 21 17 17 15 12 11 12 10 10 12 10 11 16 17 20 22 18 18 21 16 16 19 19 22 20 18 15 12 10 10 10 12 6 8 10 100 100 100 100
18 17 17 18 19 20 24 24 19 17 15 15 20 14 12 12 12 12 15 12 14 17 19 24 23 17 20 19 17 17 15 16 16 13 11 13 12 12 9 9 33 54 100 99 100
12 10 12 15 18 21 23 26 26 20 16 19 21 21 20 15 12 13 15 14 13 13 14 17 20 23 20 18 20 21 15 14 14 13 22 16 11 13 12 9 18 76 100 100 100
10 10 10 11 15 19 23 26 25 21 20 19 20 32 29 22 16 16 15 14 14 14 12 12 14 16 20 22 20 16 18 15 15 20 30 13 10 19 11 9 9 30 100 100 96
11 11 10 11 12 16 22 26 26 26 28 30 31 32 54 37 24 18 16 17 15 11 14 13 13 11 13 16 18 20 14 15 13 17 11 10 10 12 9 8 10 13 68 100 100
12 12 12 13 12 13 16 24 28 28 28 30 32 30 29 28 34 27 24 18 16 14 13 12 16 16 12 12 12 14 18 14 11 10 12 18 14 15 10 8 10 12 76 98 90
13 14 13 15 16 17 18 21 26 29 31 30 31 33 31 29 40 46 40 27 17 15 15 15 15 17 15 13 12 12 12 14 15 14 10 15 16 22 11 9 8 11 72 88 65
16 16 16 17 18 19 20 21 22 25 27 31 34 34 37 36 34 43 44 28 32 22 20 20 16 20 16 15 15 14 11 10 10 12 14 10 22 35 15 7 6 10 36 100 99
17 18 19 21 21 23 23 23 25 26 26 25 25 29 34 34 32 29 29 34 34 36 28 28 19 20 18 15 16 16 16 12 9 10 10 9 19 22 14 11 6 6 9 37 94
18 20 22 24 28 33 33 34 33 34 33 30 25 24 23 26 30 24 23 23 21 26 29 27 30 22 23 13 11 12 13 14 7 7 7 7 19 16 11 8 7 5 6 7 41
19 24 27 29 43 43 50 50 52 47 43 39 36 27 24 19 18 20 21 20 20 19 19 24 29 19 23 14 10 11 12 13 12 8 8 8 13 21 12 9 6 5 6 6 7
22 27 29 34 34 38 52 63 56 47 48 40 31 30 26 21 18 17 18 14 12 12 17 22 20 21 17 16 12 10 11 12 13 12 10 10 10 21 10 7 6 5 6 7 6
24 28 30 36 43 46 55 60 57 50 38 44 39 34 26 22 18 17 16 16 14 10 7 9 17 17 20 11 14 9 10 12 15 13 11 10 10 18 8 7 6 5 6 8 8

GFSSW_250_rhum_060.txt.gz
RH
16 16 17 18 16 12 12 13 13 12 12 13 23 26 23 20 16 10 11 15 20 22 20 16 17 17 16 16 17 18 17 15 29 82 88 96 100 100 100 100 97 90 87 77 84
17 16 16 17 16 12 11 10 12 12 11 11 15 25 26 21 18 14 11 11 13 20 20 19 16 16 17 19 18 17 17 16 22 52 74 82 100 100 100 100 47 53 63 96 100
18 16 16 16 16 15 12 11 8 9 10 10 11 18 23 25 19 19 13 10 10 13 17 18 16 16 14 15 18 15 19 17 18 35 51 96 100 100 99 100 90 100 79 100 100
20 18 17 16 16 16 15 13 11 9 7 9 11 11 18 20 25 24 17 16 10 10 12 16 18 16 15 13 14 14 17 17 16 22 35 85 99 100 100 99 100 61 33 90 100
17 18 18 19 16 15 14 13 12 11 10 7 10 12 12 17 19 29 20 20 18 11 10 10 15 17 15 14 13 13 15 16 16 23 32 49 99 100 97 100 100 86 68 100 100
11 11 12 13 16 16 15 14 12 12 11 10 8 10 13 13 13 22 28 22 20 24 12 9 10 13 17 18 15 12 13 13 16 19 33 48 71 96 100 97 100 100 100 100 84
16 14 11 9 10 12 13 13 13 12 12 10 10 8 12 13 10 15 23 28 22 24 23 12 10 10 12 17 16 16 14 12 12 14 16 32 34 93 63 67 63 100 100 96 100
25 24 16 12 10 8 9 10 11 12 11 11 10 9 9 12 12 12 14 24 26 22 22 22 18 11 11 12 19 21 20 14 10 18 25 23 24 48 58 36 71 100 77 83 99
29 24 18 16 12 9 6 7 8 10 11 12 11 10 10 10 12 12 12 15 24 24 21 21 24 20 14 12 13 21 20 18 14 17 13 17 15 18 40 23 41 65 97 86 92
38 21 18 15 13 11 9 7 7 7 9 11 13 11 11 11 10 11 12 12 14 22 22 22 25 23 25 21 14 12 16 21 21 20 20 19 16 14 20 20 20 14 48 52 83
57 32 21 15 12 13 12 10 8 8 8 8 12 12 14 12 11 11 10 11 11 13 21 20 21 26 22 25 16 12 11 12 18 20 20 25 20 15 17 16 15 16 20 90 100
70 24 21 15 13 12 13 11 10 10 9 9 9 12 17 17 11 11 11 11 10 12 12 16 21 19 18 20 24 25 17 12 11 15 18 20 19 22 19 15 13 14 25 100 100
76 25 21 19 14 14 14 13 11 11 10 9 9 9 12 15 14 12 11 11 12 13 12 12 14 15 15 18 18 22 29 18 10 10 13 16 18 18 19 15 20 18 24 100 98
47 24 18 20 17 15 14 14 12 14 12 10 10 8 10 11 14 17 15 12 11 11 14 15 13 12 13 15 18 20 32 22 10 9 11 11 12 22 32 19 19 19 27 91 100
25 22 18 15 14 14 15 16 16 15 15 12 12 11 10 10 10 13 18 18 15 11 10 12 15 15 13 14 16 17 22 25 14 12 12 12 11 10 12 19 17 17 18 100 100
25 20 16 11 9 10 15 19 19 16 12 14 14 13 12 12 10 10 13 15 19 17 14 14 13 14 17 16 14 15 17 20 19 15 16 19 16 13 11 10 12 15 17 82 83
27 20 14 9 8 9 13 17 17 17 16 13 14 16 14 13 12 10 12 11 14 19 18 18 15 11 12 14 16 19 18 24 24 28 28 17 20 18 15 11 10 9 11 47 27
25 21 13 10 9 8 10 15 19 23 24 26 22 18 16 15 14 13 12 11 10 12 15 19 20 19 17 13 11 16 17 20 32 38 33 18 14 28 16 9 8 8 11 32 72
25 21 13 12 11 11 11 13 20 25 27 31 32 30 24 19 18 15 13 11 10 10 11 13 18 21 20 22 19 17 18 19 20 24 18 18 21 31 16 10 9 10 15 68 88
24 19 14 13 13 14 14 14 17 23 28 31 33 30 25 25 21 21 20 17 13 12 12 12 14 14 18 22 24 19 17 14 15 18 17 24 29 26 13 11 11 11 11 30 80
24 15 14 15 15 16 17 17 16 20 27 31 35 35 37 35 29 27 23 20 20 20 16 15 15 15 14 16 18 22 24 21 17 15 18 21 30 22 11 11 11 13 12 14 99
21 16 16 16 18 19 19 18 21 20 21 28 34 35 37 38 35 30 33 41 29 23 22 16 15 16 16 14 14 15 17 19 20 16 16 26 47 22 13 10 9 11 13 11 52
17 17 18 20 21 23 22 25 23 23 25 27 29 31 31 35 36 34 34 34 34 30 30 28 22 20 15 13 13 12 12 13 15 18 22 20 29 22 11 9 7 8 14 15 11
20 19 21 26 25 26 27 27 33 30 24 23 23 26 27 30 30 30 30 34 30 27 31 36 30 26 17 14 12 12 12 12 12 14 16 21 28 16 10 8 8 7 9 13 9
21 22 24 27 27 27 27 32 32 41 40 32 26 23 22 21 22 27 26 26 29 28 22 31 29 29 26 15 11 11 11 12 11 10 13 15 20 27 12 7 8 7 7 10 12
22 25 23 27 29 32 36 36 44 52 44 50 40 34 29 23 19 18 17 18 23 25 28 22 22 26 24 20 11 9 10 11 12 10 11 15 15 23 14 11 7 6 6 7 11
22 24 25 28 32 36 39 40 47 53 58 47 38 32 30 29 26 21 21 19 15 13 19 26 26 20 24 18 15 10 10 10 12 14 11 13 14 17 12 10 10 6 6 6 8

GFSSW_250_rhum_063.txt.gz
RH
16 15 14 14 13 14 16 16 12 13 14 14 12 16 23 23 15 11 11 16 20 21 26 25 19 15 15 14 16 17 16 18 20 67 95 100 100 100 89 100 94 96 61 79 91
19 18 17 16 15 14 13 16 14 12 14 14 14 12 19 23 24 15 10 11 17 21 20 22 26 22 23 17 16 17 17 18 18 26 60 85 100 100 98 100 100 96 82 100 88
20 20 19 18 18 16 15 13 14 12 11 13 13 12 12 20 23 21 14 10 12 19 20 20 22 24 24 17 13 17 17 19 18 19 26 68 88 100 100 100 100 86 53 100 100
20 20 18 17 18 16 16 15 14 14 12 10 12 12 12 14 23 22 18 14 11 14 20 21 21 18 21 19 14 16 15 20 18 18 19 26 58 100 100 98 92 63 61 97 100
14 12 12 14 16 16 16 15 15 14 14 12 9 11 11 11 18 21 24 20 13 11 14 16 21 20 16 16 14 14 16 22 18 19 19 20 38 100 100 86 76 59 69 90 88
17 17 17 13 11 11 13 14 14 14 14 14 12 9 10 11 12 21 22 26 17 13 10 12 16 20 19 18 14 13 15 18 23 19 20 20 38 100 100 97 100 68 84 86 89
18 20 20 20 19 18 10 9 12 13 14 14 13 12 9 10 11 13 24 22 22 18 10 10 10 15 17 17 15 14 14 12 17 16 18 22 31 80 100 100 100 100 79 100 100
21 21 22 25 20 18 15 14 10 9 11 13 13 12 12 10 10 13 16 22 21 19 16 17 10 10 13 16 17 17 14 14 12 14 16 18 21 27 39 78 97 70 82 100 79
27 28 34 31 28 25 18 15 15 10 9 10 12 13 12 12 8 11 14 15 23 18 19 25 22 13 10 12 13 15 13 15 12 12 15 13 15 18 25 32 78 65 100 100 90
39 50 63 98 100 58 20 16 14 11 9 9 10 12 13 12 11 8 14 14 14 21 22 23 25 24 15 11 11 12 13 16 17 18 20 18 16 31 36 35 34 56 57 73 97
78 100 100 100 66 35 21 13 11 10 10 10 9 10 11 13 12 11 10 14 13 13 21 30 23 23 26 17 10 9 11 14 15 14 22 19 16 22 20 27 34 37 29 36 23
75 63 57 47 71 50 19 12 10 10 11 11 9 9 11 13 13 11 10 10 14 14 13 20 37 30 22 23 19 14 10 10 12 18 19 23 21 24 18 28 25 23 16 23 22
99 100 100 84 49 24 17 13 10 11 10 12 12 10 10 11 11 12 12 11 11 14 15 15 22 27 23 19 20 28 16 10 9 11 18 23 24 23 20 23 25 20 14 25 25
100 100 78 52 28 16 14 14 13 12 10 13 14 12 10 11 12 14 15 12 12 12 14 16 15 16 25 26 23 28 21 12 9 10 11 14 17 22 22 23 33 22 14 18 26
100 62 54 29 15 13 14 14 13 15 12 12 14 15 13 11 11 13 17 16 12 11 13 15 14 14 15 24 28 27 22 13 10 11 14 12 12 14 18 19 21 22 15 14 28
62 75 28 20 15 13 10 10 11 14 13 13 15 16 15 13 11 12 13 18 16 12 14 15 13 13 15 14 23 22 23 17 14 15 20 27 18 14 16 17 19 19 18 16 24
71 31 25 19 15 10 8 8 10 13 15 15 15 15 16 15 13 11 12 12 17 17 14 13 13 14 13 13 15 16 20 20 17 17 21 26 38 29 16 13 14 14 17 22 19
42 28 22 18 11 9 9 8 9 12 19 24 22 17 17 16 14 13 12 11 13 19 21 19 16 14 16 16 15 15 14 16 17 18 20 19 27 40 23 13 10 11 12 17 23
32 23 20 13 11 10 12 11 11 13 20 27 28 24 20 20 21 17 15 13 12 14 19 25 25 21 20 20 16 19 18 17 15 14 16 16 19 25 19 18 10 10 11 12 12
26 23 15 13 13 12 12 12 11 14 18 25 28 29 28 25 22 24 22 21 16 14 15 18 23 28 28 25 20 14 15 16 17 16 16 18 18 18 15 16 12 12 14 11 11
25 18 14 14 15 16 14 16 16 14 19 23 25 26 30 32 27 24 22 22 24 20 16 17 18 19 24 28 27 18 12 12 15 17 19 24 15 15 15 18 16 15 17 14 12
17 15 16 16 18 20 19 19 21 19 22 28 32 35 37 32 28 27 29 23 24 27 22 16 17 17 16 19 23 25 19 14 14 15 19 21 18 17 16 14 16 19 17 22 14
16 15 18 20 23 24 23 21 22 22 21 24 31 36 36 37 37 34 35 30 26 26 29 28 23 18 15 13 15 18 22 22 20 17 18 21 16 14 17 19 18 17 17 25 21
15 18 20 22 26 26 26 22 26 25 24 24 27 35 38 40 42 41 39 35 33 29 30 26 26 26 19 14 14 14 15 18 20 24 24 18 11 13 15 16 18 19 20 20 20
17 19 21 24 27 29 30 34 28 26 28 27 26 27 35 38 41 42 38 39 38 34 33 35 30 27 26 20 15 13 14 15 17 18 23 21 16 11 10 11 16 16 16 19 18
20 19 20 23 26 33 36 36 35 41 37 32 28 26 27 30 32 38 42 40 38 38 34 28 30 33 33 26 20 18 14 14 15 15 17 20 19 14 13 11 10 12 13 13 15
21 21 22 25 28 30 34 38 43 41 39 36 34 30 26 26 26 24 27 32 35 33 34 34 28 25 28 33 24 20 17 14 12 12 12 14 16 15 14 13 13 10 8 10 10

GFSSW_250_rhum_069.txt.gz
RH
21 18 16 15 14 12 11 11 12 12 12 12 17 16 15 16 17 14 9 13 23 23 21 17 20 20 15 15 20 20 19 19 32 74 100 100 98 94 52 55 41 60 97 64 60
22 22 22 20 18 17 15 13 13 12 10 11 14 17 17 15 16 18 10 9 19 24 22 23 17 21 17 16 18 20 16 19 20 41 100 81 80 61 59 57 44 37 72 56 73
15 17 20 20 20 17 17 17 16 14 12 12 12 15 16 15 15 16 15 9 11 22 24 26 20 14 13 14 15 19 17 18 19 23 76 92 97 100 75 89 53 80 72 51 49
18 18 16 14 15 16 18 17 16 16 16 13 13 13 15 13 14 14 16 13 9 14 25 27 29 17 13 15 16 18 18 20 19 19 21 68 80 100 80 86 68 62 50 39 41
22 17 18 17 15 14 13 14 16 17 16 17 14 13 14 12 12 12 14 16 10 10 20 28 26 20 15 17 18 18 22 20 18 18 17 22 62 85 40 29 90 68 53 42 41
32 28 21 22 19 13 13 13 11 13 16 16 17 16 14 14 13 13 12 14 16 11 12 25 26 25 20 20 21 21 16 16 16 15 16 18 34 32 26 28 80 77 33 35 63
32 34 32 32 28 27 16 14 13 11 11 13 15 16 17 16 14 14 13 12 14 17 9 16 27 28 23 20 26 29 12 13 15 15 16 18 20 22 28 28 74 87 40 31 79
28 30 32 32 28 30 30 23 23 13 12 11 10 13 15 16 16 15 13 14 12 15 17 10 18 25 24 22 21 26 16 13 17 16 18 18 18 20 23 33 65 98 52 46 78
28 25 26 27 28 26 30 33 27 25 15 12 10 9 11 14 16 16 14 13 14 13 17 18 10 16 22 21 17 21 22 19 20 18 18 19 21 18 36 31 83 100 71 83 100
17 22 20 22 25 31 30 29 37 36 26 17 12 10 9 10 13 15 16 14 12 13 13 20 17 12 13 18 15 20 21 20 20 18 19 19 20 24 21 32 36 98 99 100 100
20 21 23 23 29 34 43 35 42 42 38 30 20 14 11 9 10 13 15 15 14 12 13 14 21 18 13 14 15 18 20 19 20 20 18 18 18 22 20 20 25 33 83 92 63
29 27 29 28 32 42 49 52 68 77 56 46 40 32 18 13 10 10 13 15 15 14 12 13 18 23 14 14 12 14 17 17 19 20 19 18 18 18 18 19 18 20 22 21 22
39 41 55 52 65 64 75 90 85 84 76 45 46 35 30 25 18 10 10 14 15 14 13 12 14 17 20 16 17 12 14 15 16 17 18 19 18 19 19 19 17 16 16 16 14
56 73 82 76 79 82 98 91 81 81 98 65 54 44 43 39 32 19 11 11 14 16 16 13 12 14 22 21 18 19 11 12 13 14 15 18 18 18 18 17 19 18 14 13 16
48 56 71 68 55 65 69 78 79 76 75 71 65 66 81 60 35 24 18 11 12 14 17 17 12 13 16 28 24 22 17 12 12 11 11 13 15 16 16 17 14 12 13 12 12
67 54 49 45 38 35 36 42 45 45 52 54 67 64 49 40 35 26 22 14 10 12 16 17 15 11 15 18 25 22 20 21 19 14 11 11 12 13 14 15 16 20 21 18 18
44 35 22 20 20 21 20 20 20 23 29 31 34 36 30 21 19 16 18 17 13 11 13 18 17 15 12 14 19 25 24 29 32 31 20 15 12 12 12 12 13 15 15 18 19
31 22 19 17 16 16 16 18 18 18 18 17 17 17 17 16 16 14 15 16 14 12 13 16 20 16 15 13 16 17 28 31 33 36 42 30 19 15 12 11 11 11 13 16 16
24 15 12 11 11 11 10 11 12 14 14 14 15 17 18 18 18 17 16 16 15 14 14 14 18 20 16 15 13 15 19 32 34 37 36 29 28 22 17 14 13 13 12 11 11
22 13 12 12 12 12 12 12 12 12 12 12 12 14 15 17 20 23 23 22 19 14 15 15 16 22 20 17 15 12 16 17 27 39 39 33 37 26 28 24 21 20 19 14 13
18 13 13 15 16 15 15 16 16 16 14 14 13 13 15 16 21 27 31 30 23 17 16 15 14 18 23 18 16 14 13 14 18 26 28 38 38 39 28 30 30 29 30 24 20
18 14 14 15 18 19 20 19 19 19 17 18 21 15 15 18 21 27 33 32 26 20 16 17 16 16 21 24 19 17 14 13 13 16 20 28 32 40 38 29 30 29 35 32 30
20 16 14 15 19 23 24 23 23 22 22 21 20 22 25 22 23 30 36 37 29 22 18 16 17 16 18 24 25 20 17 15 14 14 15 21 22 31 40 42 34 33 31 29 33
22 18 15 16 20 26 30 31 27 26 27 24 23 23 22 26 32 37 40 40 34 28 23 20 20 18 17 21 29 31 25 21 16 15 14 14 21 28 32 34 36 32 35 32 28
27 18 19 20 22 24 30 36 34 29 28 29 27 25 25 26 32 45 51 52 44 35 31 25 24 22 20 19 23 31 34 31 25 19 16 14 15 19 26 30 28 27 30 32 29
31 22 23 21 24 27 28 33 36 35 31 30 30 31 30 28 31 49 55 55 52 49 39 31 32 28 24 21 20 22 27 32 32 28 21 17 16 18 20 22 22 21 20 25 29
35 22 25 25 28 30 31 32 35 39 39 34 32 30 31 36 33 41 51 49 48 47 47 39 30 28 27 22 20 19 20 21 23 24 24 21 17 17 19 19 20 18 18 16 18

GFSSW_250_rhum_072.txt.gz
RH
22 19 16 14 12 12 11 11 11 10 11 11 12 13 14 13 17 17 10 8 11 15 18 18 20 18 17 19 22 26 31 37 67 95 100 78 100 63 58 39 49 44 50 44 41
16 20 21 19 18 16 14 13 12 10 9 12 12 12 13 15 15 17 16 9 9 13 16 20 20 22 19 19 21 21 52 26 45 67 100 56 100 86 55 55 51 32 63 39 40
19 16 14 17 20 20 17 16 14 12 10 10 12 12 11 14 15 15 17 15 9 10 16 20 19 18 22 15 20 22 53 28 28 44 100 69 90 100 100 50 59 50 47 37 39
21 18 16 14 14 15 17 18 17 15 13 12 11 11 10 11 15 15 15 16 12 9 13 19 19 18 22 23 20 19 29 33 21 28 52 100 85 38 99 67 59 67 57 45 40
17 19 17 16 15 16 15 14 16 16 15 14 12 12 11 11 14 18 16 15 16 10 10 17 20 19 23 24 29 28 20 24 19 18 24 58 92 88 99 93 45 73 69 34 52
14 16 18 16 16 15 16 15 14 14 14 14 14 13 13 12 13 16 17 15 15 14 9 12 18 21 23 26 26 28 22 18 19 17 17 21 31 67 75 96 30 87 76 31 59
14 14 15 17 15 15 14 13 14 13 12 13 13 14 13 14 13 14 17 14 14 15 12 9 14 18 23 24 26 24 18 17 18 17 18 18 22 26 60 61 33 55 55 65 52
18 16 15 13 20 18 17 16 14 13 13 13 11 13 14 14 12 14 17 16 12 13 15 11 9 14 22 27 26 24 16 15 18 18 19 20 41 44 36 37 32 52 35 54 51
20 16 15 18 18 23 24 22 22 20 15 12 12 11 12 14 15 13 14 18 14 12 13 15 10 10 16 25 28 22 20 18 15 17 18 19 18 32 32 25 25 67 71 39 58
22 21 18 22 23 24 26 25 25 24 21 18 12 11 11 12 14 15 14 16 18 15 13 14 15 10 10 18 23 24 22 20 16 16 16 18 18 20 33 47 31 31 42 40 60
21 24 24 23 20 27 25 26 26 24 25 27 24 15 13 12 12 14 15 15 16 18 15 14 14 15 10 10 19 26 27 22 18 19 19 22 20 21 18 24 23 39 34 50 70
23 22 26 28 28 25 26 25 29 30 33 32 25 22 17 14 12 12 14 15 15 16 18 14 15 15 14 11 15 22 23 26 22 22 23 24 24 22 19 22 21 28 36 69 78
28 34 42 44 39 34 36 38 36 36 34 37 39 36 29 22 16 13 12 13 13 15 16 16 14 15 14 15 16 13 19 23 23 22 21 22 23 23 20 19 22 20 22 23 37
28 30 42 56 57 54 44 40 43 43 40 37 39 46 51 34 26 18 14 12 13 14 16 16 14 14 15 15 21 16 11 18 18 20 21 20 21 22 21 18 18 18 16 16 20
47 49 41 34 32 47 57 59 52 56 50 50 57 66 59 70 46 29 26 17 14 13 15 16 16 14 14 16 18 18 15 11 14 16 18 18 19 20 21 20 19 17 17 16 18
42 35 26 24 23 26 28 33 49 68 72 79 69 75 86 80 74 54 34 30 24 15 14 14 15 16 14 14 14 19 22 19 13 13 16 17 17 18 18 19 19 19 18 17 17
42 29 22 18 16 16 17 18 20 27 42 55 78 81 81 79 80 68 51 32 32 28 18 16 15 16 17 14 14 14 21 31 25 14 14 15 16 16 16 17 17 19 18 17 17
37 24 16 11 9 10 10 12 16 17 17 27 38 60 70 69 75 86 72 42 34 37 30 23 15 15 16 16 14 15 18 35 42 34 19 15 14 14 14 14 15 16 16 16 16
35 23 13 10 9 10 10 10 11 15 18 18 22 24 44 53 60 82 76 53 45 47 43 28 16 15 16 17 17 15 15 22 36 43 33 22 13 16 13 12 12 12 12 13 14
28 20 13 10 11 12 13 13 12 11 11 14 18 19 22 29 38 50 59 64 57 48 35 36 23 19 16 16 17 16 15 15 37 49 50 39 28 18 16 14 13 12 11 11 10
29 24 14 11 12 13 15 16 14 13 12 12 13 16 20 19 19 31 39 40 39 41 37 33 29 28 18 14 16 16 16 14 22 41 51 48 40 41 34 25 19 15 13 11 13
36 28 16 14 13 14 17 19 18 17 18 17 15 15 17 18 20 21 24 24 23 28 31 24 22 22 17 14 14 18 16 17 15 30 52 52 43 44 42 37 30 28 22 16 13
41 32 18 16 16 18 17 23 24 21 22 20 19 16 17 16 17 17 20 22 22 22 24 21 19 19 19 15 13 15 18 17 17 18 32 55 51 52 50 44 36 32 31 30 24
44 39 20 18 20 22 23 21 28 27 25 24 22 21 18 21 18 18 20 21 22 23 24 24 22 21 20 17 14 15 18 19 19 16 17 39 46 55 54 51 47 39 40 40 32
51 44 23 25 21 26 28 29 27 30 28 27 26 25 25 23 22 23 21 20 22 24 24 26 26 24 22 20 18 16 16 23 21 18 17 15 30 55 57 59 56 50 48 42 34
62 47 29 31 28 25 29 34 32 34 33 30 29 28 27 27 25 24 24 26 28 30 32 31 30 28 27 21 20 18 18 19 29 26 18 15 17 42 50 53 58 52 45 49 43
73 48 32 27 32 31 32 30 37 39 36 37 32 29 28 27 26 27 28 31 33 36 40 42 45 37 33 29 21 20 19 19 19 30 23 18 18 20 27 42 41 40 37 34 35

GFSSW_250_rhum_075.txt.gz
RH
17 17 14 10 10 10 10 10 10 10 9 10 11 13 12 13 13 12 10 7 9 12 13 17 19 19 24 27 21 21 66 96 86 100 60 100 100 79 38 35 47 41 35 37 58
11 12 14 16 14 11 10 10 9 9 9 10 10 12 14 12 12 13 12 9 8 10 13 15 21 19 22 24 24 22 74 94 79 93 100 67 99 100 96 66 49 42 38 38 48
15 12 11 11 14 16 15 11 10 9 9 10 9 10 12 14 13 12 14 13 8 9 12 14 19 19 21 21 22 25 76 63 62 69 100 57 100 100 99 83 44 52 55 50 44
13 15 15 12 11 11 14 16 15 12 10 10 10 9 11 12 14 13 12 14 13 8 10 13 16 21 20 21 25 37 42 65 45 47 76 89 78 96 100 97 86 47 68 53 40
14 12 13 16 14 10 10 11 14 15 14 11 11 10 9 12 14 13 14 14 15 12 8 11 14 20 23 24 28 43 40 61 37 47 50 100 68 79 95 100 97 53 57 38 36
26 22 12 12 14 15 12 10 10 12 14 13 12 11 10 10 12 14 13 15 15 15 11 9 12 16 23 27 27 40 35 45 38 36 40 49 100 92 85 100 100 71 46 61 52
22 24 22 14 13 13 15 13 11 11 11 13 14 13 12 11 11 12 12 13 16 15 16 10 9 13 18 24 28 26 23 25 34 29 37 30 42 86 86 100 94 96 40 43 70
24 24 21 21 15 13 13 16 15 12 12 12 12 14 14 14 12 12 12 13 16 16 16 16 10 10 13 20 25 23 19 15 17 22 24 26 55 74 49 60 67 68 53 33 51
24 25 27 23 21 16 14 15 17 17 13 13 13 12 14 16 15 14 14 13 15 19 18 16 14 11 11 15 22 25 24 19 20 18 20 19 41 62 87 47 46 54 45 28 38
22 21 25 28 26 22 18 16 17 17 19 14 13 14 13 13 16 17 15 14 15 17 19 17 15 13 12 12 18 22 24 24 24 22 19 20 67 60 53 72 56 34 26 32 31
24 23 24 23 25 25 21 21 15 20 19 18 18 14 16 13 13 16 18 16 15 15 19 19 15 16 16 15 13 18 20 24 24 24 22 21 26 26 32 28 28 41 74 73 22
27 27 28 28 27 27 26 29 25 21 24 23 23 20 24 16 13 12 15 19 16 15 15 19 19 14 15 16 14 12 17 22 23 24 24 22 22 24 28 22 20 26 52 29 26
36 32 32 46 45 44 38 37 35 28 23 24 27 25 32 27 18 14 12 15 18 16 15 17 18 13 13 16 22 13 11 16 23 23 25 24 20 19 19 20 20 23 28 46 29
46 43 38 36 34 34 39 48 50 37 28 26 28 28 29 30 30 23 14 12 14 18 17 15 15 16 14 13 17 20 10 10 18 24 26 23 20 19 20 21 21 24 32 27 28
53 53 42 35 34 34 34 34 44 40 40 26 26 28 28 30 30 39 34 19 14 13 17 18 17 18 17 14 14 17 15 9 14 18 23 24 23 21 20 21 21 24 27 36 36
53 47 36 23 16 16 19 25 33 52 40 36 34 28 26 27 27 33 38 34 20 16 14 16 17 17 18 17 14 14 18 16 15 16 19 20 22 22 18 31 23 23 23 23 31
54 40 25 15 12 12 14 17 18 24 31 47 50 47 36 30 27 34 35 44 44 27 21 13 15 18 19 18 17 14 16 19 24 15 16 18 20 20 21 21 21 30 26 22 24
55 35 19 10 10 9 9 12 16 17 21 34 46 54 62 44 29 34 35 40 39 44 37 18 15 15 18 19 18 15 16 16 25 30 21 18 18 18 20 20 21 21 22 22 30
49 31 17 10 10 9 11 11 11 14 18 24 29 46 57 59 48 50 47 47 39 49 30 29 20 12 15 18 19 18 14 17 20 26 30 23 16 15 18 19 19 20 19 19 19
45 31 24 14 11 12 12 12 12 11 12 17 23 28 44 59 64 63 82 62 62 61 54 48 25 20 18 16 18 19 20 16 15 20 33 29 29 13 17 15 17 19 19 18 24
48 34 29 17 14 14 12 12 13 13 12 12 15 22 27 39 59 65 77 73 86 99 90 59 34 35 23 17 17 19 20 19 15 18 32 42 34 25 26 16 14 16 17 17 17
54 38 33 18 19 14 18 14 15 16 15 15 14 15 20 23 31 55 51 77 88 98 100 78 68 53 40 23 17 20 20 20 18 18 18 40 18 25 35 27 18 15 15 15 15
54 43 37 22 23 19 18 19 18 19 18 17 16 16 15 20 24 31 43 53 70 82 93 92 97 74 52 30 27 23 23 21 21 23 17 22 17 38 39 34 27 20 16 14 14
57 48 42 25 25 24 20 21 22 24 22 22 21 20 18 17 17 21 30 40 38 45 68 90 93 91 73 52 45 44 26 24 20 21 22 31 17 17 45 39 38 33 26 20 15
67 48 44 28 29 27 26 22 23 27 25 26 23 22 21 19 18 20 23 26 28 30 37 68 82 95 79 74 60 41 38 32 22 20 23 23 14 14 48 45 41 43 40 37 31
75 56 44 27 31 34 30 29 23 26 29 27 28 26 23 21 20 17 19 21 25 27 27 41 62 63 62 66 61 48 45 44 37 25 19 21 15 15 27 47 46 43 46 48 49
84 60 48 28 30 32 36 32 31 26 29 30 29 29 28 25 23 22 21 20 21 22 24 27 28 37 44 47 51 46 46 39 34 30 23 17 17 23 22 40 54 53 45 45 48